Home > Weather > Barnstable > Past weeks

Flag for USA Past Weather in Barnstable, Massachusetts, USA — Yesterday and Last 2 Weeks

Now
66 °F

Fog.


Feels Like: 66 °F
Forecast: 63 / 76 °F
Wind: 14 mph from Southwest

Location: Barnstable Municipal-Boardman Airport

Current Time: May 30, 2016 at 8:21:37 PM

Latest Report: May 30, 2016 at 7:56 PM


Visibility: 2 mi

Pressure: 29.93 "Hg

Humidity: 96%

Dew Point: 65 °F

Location of BarnstableLocation

Past Weather in Barnstable — Graph

°F

Barnstable Temperature Yesterday

Maximum temperature yesterday: 66 °F (at 12:56 AM)
Minimum temperature yesterday: 56 °F (at 7:56 PM)
Average temperature yesterday: 61 °F

High & Low Weather Summary for the Past Weeks

 TemperatureHumidityPressure
High79 °F (May 26, 11:56 AM)100% (May 24, 9:03 AM)30.21 "Hg (May 24, 9:03 AM)
Low43 °F (May 16, 4:56 AM)27% (May 16, 6:56 PM)29.67 "Hg (May 15, 6:56 PM)
Average59 °F71%30.02 "Hg
* Reported May 15 6:56 PM — May 30 6:56 PM, Barnstable, Weather by CustomWeather, © 2016

Note: Actual official high and low records may vary slightly from our data, if they occured in-between our weather recording intervals... More about our weather records

Advertising

Barnstable Weather History for the Previous 24 Hours

Scroll right to see more
 ConditionsComfort  
Time TempWeatherWind HumidityBarometerVisibility
6:56 PM
Mon, May 30
66 °FFog.14 mph96%29.93 "Hg1 mi
5:56 PM66 °FFog.18 mph96%29.94 "Hg2 mi
4:56 PM68 °FLow clouds.13 mph93%29.94 "Hg10 mi
3:56 PM69 °FLow clouds.14 mph93%29.94 "Hg10 mi
2:56 PM68 °FLow clouds.14 mph93%29.95 "Hg10 mi
1:56 PM67 °FLight rain. Low clouds.16 mph93%29.96 "Hg7 mi
12:56 PM68 °FHeavy rain. Fog.15 mph93%29.97 "Hg1 mi
11:56 AM67 °FLight rain. Low clouds.13 mph93%29.99 "Hg7 mi
10:56 AM66 °FRain. Fog.10 mph96%30.00 "Hg2 mi
9:56 AM68 °FLow clouds.9 mph93%30.01 "Hg10 mi
9:02 AM61 °FFog.No wind100%30.02 "Hg4 mi
7:56 AM65 °FLight rain. Fog.10 mph97%30.01 "Hg1 mi
6:56 AM62 °FFog.5 mph100%30.01 "Hg1 mi
5:56 AM61 °FFog.No wind97%30.02 "Hg0 mi
4:56 AM60 °FFog.No wind96%30.03 "Hg1 mi
3:56 AM59 °FFog.No wind93%30.05 "Hg1 mi
2:56 AM58 °FLight rain. Fog.3 mph97%30.06 "Hg5 mi
1:56 AM58 °FFog.No wind93%30.09 "Hg1 mi
12:56 AM57 °FLight rain. Fog.No wind96%30.11 "Hg2 mi
11:56 PM
Sun, May 29
57 °FLight rain. Fog.No wind96%30.12 "Hg2 mi
10:56 PM57 °FFog.5 mph90%30.13 "Hg4 mi
9:56 PM56 °FFog.7 mph93%30.15 "Hg6 mi
8:56 PM56 °FLow clouds.7 mph90%30.15 "Hg8 mi
Weather by CustomWeather, © 2016

See weather overviewHow to use our weather pages